User: anonymous   Login
Location: Killarney Provincial Park Observatory
(46.0124°N, 81.4000°W)
Time: 23:18:57
(UTC-04:00)
Language:

Iridium 22 - Orbit

View from above orbital plane
View from above orbital plane
View from above satellite
View from above satellite

Ground track
Ground track

The orbit data is extracted from the following two-line orbital elements,

1 24907U 97043E   15089.47016852  .00000048  00000-0  10154-4 0  9998
2 24907 086.3972 234.4435 0002222 097.4967 323.6978 14.34217150921776
Epoch (UTC): 30 March 2015 11:17:02
Eccentricity: 0.0002222
inclination: 86.3972°
perigee height: 776 km
apogee height: 779 km
right ascension of ascending node: 234.4435°
argument of perigee: 97.4967°
revolutions per day: 14.34217150
mean anomaly at epoch: 323.6978°
orbit number at epoch: 92177

The dashed part of the orbit path shows where the satellite is in the earth's shadow,  

DLR